Flag for Austria Past Weather in Bruck an der Leitha, Lower Austria, Austria — Yesterday and Last 2 Weeks

Now
54 °F

Passing clouds.


Feels Like: N/A
Forecast: 55 / 75 °F
Wind: N/A

Location: Wien / Schwechat-Flughafen

Current Time: May 26, 2016 at 4:53:04 AM

Latest Report: May 26, 2016 at 4:00 AM


Visibility: 5 mi

Pressure: 29.97 "Hg

Humidity: 94%

Dew Point: 52 °F

Location of Bruck an der LeithaLocation

Past Weather in Bruck an der Leitha — Graph

°F

Bruck an der Leitha Temperature Yesterday

Maximum temperature yesterday: 69 °F (at 5:00 PM)
Minimum temperature yesterday: 56 °F (at 1:00 AM)
Average temperature yesterday: 62 °F

High & Low Weather Summary for the Past Weeks

 TemperatureHumidityPressure
High78 °F (May 23, 5:00 PM)99% (May 13, 12:00 AM)30.14 "Hg (May 13, 12:00 AM)
Low44 °F (May 16, 5:00 AM)36% (May 17, 1:00 PM)29.35 "Hg (May 13, 2:00 AM)
Average59 °F68%29.85 "Hg
* Reported May 11 3:00 AM — May 26 3:00 AM, Bruck an der Leitha, Weather by CustomWeather, © 2016

Note: Actual official high and low records may vary slightly from our data, if they occured in-between our weather recording intervals... More about our weather records

Advertising

Bruck an der Leitha Weather History for the Previous 24 Hours

Scroll right to see more
 ConditionsComfort  
Time TempWeatherWind HumidityBarometerVisibility
3:00 AM
Thu, May 26
55 °FPassing clouds.N/A93%29.96 "Hg6 mi
2:00 AM59 °FPassing clouds.3 mph84%29.95 "Hg7 mi
1:00 AM60 °FPassing clouds.5 mph83%29.94 "Hg7 mi
12:00 AM58 °FPassing clouds.N/A86%29.95 "Hg8 mi
11:00 PM
Wed, May 25
59 °FPassing clouds.N/A83%29.93 "Hg10 mi
10:00 PM60 °FPassing clouds.5 mph80%29.92 "Hg14 mi
9:00 PM63 °FPassing clouds.6 mph73%29.91 "Hg17 mi
8:00 PM65 °FPassing clouds.6 mph67%29.88 "Hg19 mi
7:00 PM67 °FPassing clouds.6 mph65%29.87 "Hg14 mi
6:00 PM68 °FScattered clouds.8 mph63%29.86 "Hg14 mi
5:00 PM69 °FPassing clouds.8 mph60%29.87 "Hg12 mi
4:00 PM69 °FScattered clouds.7 mph63%29.88 "Hg12 mi
3:00 PM69 °FScattered clouds.8 mph64%29.88 "Hg7 mi
2:00 PM67 °FPassing clouds.8 mph65%29.89 "Hg13 mi
1:00 PM65 °FScattered clouds.9 mph67%29.90 "Hg14 mi
12:00 PM63 °FPartly sunny.9 mph70%29.90 "Hg12 mi
11:00 AM61 °FOvercast.10 mph73%29.91 "Hg16 mi
10:00 AM60 °FOvercast.10 mph75%29.90 "Hg14 mi
9:00 AM58 °FOvercast.7 mph80%29.90 "Hg19 mi
8:00 AM57 °FOvercast.9 mph81%29.88 "Hg25 mi
7:00 AM57 °FOvercast.10 mph78%29.85 "Hg28 mi
6:00 AM58 °FOvercast.10 mph75%29.83 "Hg31 mi
5:00 AM57 °FOvercast.8 mph75%29.82 "Hg28 mi
4:00 AM57 °FOvercast.10 mph76%29.81 "Hg31 mi
Weather by CustomWeather, © 2016

See weather overviewHow to use our weather pages